Regional Weather Roundup
Issued by NWS Upton, NY

Home | Current Version | Previous Version | Text Only | Print | Product List | Glossary On
Versions: 1 2 3 4 5 6 7 8 9 10 11 12 13 14 15 16 17 18 19 20 21 22 23 24 25 26 27
000
ASUS41 KOKX 271408
RWROKX

REGIONAL WEATHER ROUNDUP
NATIONAL WEATHER SERVICE NEW YORK NY
900 AM EST MON FEB 27 2017

NOTE: "FAIR" INDICATES FEW OR NO CLOUDS BELOW 12,000 FEET WITH NO
SIGNIFICANT WEATHER AND/OR OBSTRUCTIONS TO VISIBILITY.

NYZ071-072-176-178-NJZ106-104-271500-
NEW YORK CITY METRO AREA

CITY           SKY/WX    TMP DP  RH WIND       PRES   REMARKS
Central Park   SUNNY     39  22  50 VRB6      30.43R WCI  35
Wall St Helipt NOT AVBL
LaGuardia APRT PTSUNNY   42  23  46 SW8       30.41R
Kennedy INTL   PTSUNNY   40  27  59 SW14      30.43R WCI  32
Breezy Point     N/A     37 N/A N/A W8          N/A  WCI  31
Newark/Liberty PTSUNNY   39  23  52 SW7       30.42R WCI  34
Teterboro      MOSUNNY   40  22  48 SW10      30.41R WCI  33
$$

NYZ177-179-078>081-271500-
LONG ISLAND NEW YORK

CITY           SKY/WX    TMP DP  RH WIND       PRES   REMARKS
Jones Beach      N/A     39 N/A N/A SW12        N/A  WCI  32
Matinecock PT  NOT AVBL
Farmingdale    SUNNY     40  25  55 W12       30.43R WCI  33
MacArthur/ISP  PTSUNNY   42  24  49 SW14      30.41R
Shirley        SUNNY     42  26  53 W12       30.42S
Westhampton    SUNNY     43  26  51 SW16      30.43R
Southampton      N/A     43  32  65 W12       30.40R
Bridgehampton  NOT AVBL
East Hampton     N/A     42  24  49 SW14      30.42R
Montauk          N/A     42  25  50 SW12G21   30.42R
$$

NYZ052-065-067-271500-
HUDSON VALLEY

CITY           SKY/WX    TMP DP  RH WIND       PRES   REMARKS
White Plains   SUNNY     39  18  42 SW8       30.38R WCI  33
Newburgh       SUNNY     37  21  52 W8        30.37R WCI  31
Montgomery     SUNNY     36  22  56 SW9       30.35R WCI  29
Poughkeepsie   SUNNY     36  19  50 SW9       30.36R WCI  29
Albany         PTSUNNY   35  20  54 S10       30.29R WCI  27
$$

NJZ001-105-106-008-010-013-015-019>022-104-271500-
NEW JERSEY

CITY           SKY/WX    TMP DP  RH WIND       PRES   REMARKS
Newark/Liberty PTSUNNY   39  23  52 SW7       30.42R WCI  34
Teterboro      MOSUNNY   40  22  48 SW10      30.41R WCI  33
Caldwell       MOSUNNY   38  20  48 SW6       30.42R WCI  33
Somerville     MOSUNNY   35  24  64 CALM      30.41R
Linden         NOT AVBL
Sussex         CLOUDY    36  21  54 SW8       30.36S WCI  30
Andover          N/A     35  20  54 S7        30.39R WCI  29
Trenton        SUNNY     36  27  69 SW6       30.42R WCI  31
Millville      CLOUDY    44  36  73 SW3       30.45R
Atlantic City  PTSUNNY   44  33  65 S8        30.45R
Wrightstown    SUNNY     41  27  56 SW9       30.41R
Toms River     MOSUNNY   43  25  49 SW10G20   30.44S
Belmar         MOSUNNY   39  24  55 S7        30.44R WCI  34
$$

PAZ047>061-062-071-271500-
EASTERN PENNSYLVANIA

CITY           SKY/WX    TMP DP  RH WIND       PRES   REMARKS
Philadelphia   CLOUDY    41  28  60 SW7       30.45R
Allentown      CLOUDY    34  23  64 CALM      30.41R
Scranton       CLOUDY    36  18  48 SW7       30.34R WCI  30
$$

CTZ002-004>006-009-010-012-RIZ004-006-007-MAZ004-011-015-271500-
SOUTHERN NEW ENGLAND
 IN CT

CITY           SKY/WX    TMP DP  RH WIND       PRES   REMARKS
Bradley INTL   PTSUNNY   37  18  46 SW13      30.35R WCI  29
Hartford       SUNNY     39  20  46 S10       30.38R WCI  32
Danbury        SUNNY     37  18  46 W7        30.38R WCI  32
Wtrbury/Oxford PTSUNNY   34  16  47 W6        30.37R WCI  29
Bridgeport     SUNNY     40  25  55 SW15      30.41R WCI  32
Meriden        SUNNY     39  21  48 S5        30.39R
New Haven      PTSUNNY   38  27  64 VRB6      30.41R WCI  33
Chester          N/A     39  23  52 SW9G17    30.38R WCI  33
Groton         SUNNY     41  25  53 W13G22    30.40R
Wilimantic     SUNNY     40  21  46 SW8       30.37R WCI  34

 IN RI

CITY           SKY/WX    TMP DP  RH WIND       PRES   REMARKS
Providence     PTSUNNY   40  19  43 SW13      30.38R WCI  32
Block Island   SUNNY     42  25  50 W15G23    30.41R
Westerly       SUNNY     42  24  49 SW14G22   30.40R
 IN MA

CITY           SKY/WX    TMP DP  RH WIND       PRES   REMARKS
Boston         MOSUNNY   39  19  44 SW18      30.33R WCI  30
Worcester      SUNNY     34  15  46 SW15      30.29R WCI  24
Westfield      SUNNY     36  20  52 S7        30.32S WCI  30
Provincetown   SUNNY     40  26  57 SW21      30.36R WCI  30
Nantucket      SUNNY     43  27  53 W18G26    30.39R
$$

ANZ330-335-338-340-345-350-353-355-271500-
COASTAL MARINE OBSERVATIONS


STATION/POSITION TIME  SKY/WX   TEMP    WIND        PRES    VSBY  WAVE
                                AIR SEA DIR/SP/G                  HT/PER
                 (UTC)          (F)     (DEG/KT/KT) (MB)    (MI)  (FT/S)
NY HARB ENTRANCE 1250            39 42  230/ 16/ 19 1029.4          3/10
20 S FIRE ISLAND 1350            42 43  230/ 14/ 16 1030.4          3/ 9
GREAT SOUTH BAY  NOT AVBL
23 SSW MONTAUK P 1250            43 44              1029.7          4/10
15 E BARNEGAT LI 1330               44                N/A           3/ 9
HUDSON CANYON    1250               47              1031.0          3/ 9
KINGS POINT      1336            39 40              1029.7
EXECUTION ROCKS  NOT AVBL
CENTRAL LI SOUND 1315            38     240/ 14/ 16   N/A           2/ 4
EASTERN LI SOUND NOT AVBL
ROBBINS REEF     1336            37     250/ 12/ 14 1030.4
$$


>>>>>>>>>>>>>>>>>>>>>>>>>>>> KEY <<<<<<<<<<<<<<<<<<<<<<<<<<<
>                                                          <
>     SKY/WX - Sky Condition/Present Weather               <
>     TMP    - Temperature in Fahrenheit                   <
>     DP     - Dew Point in Fahrenheit                     <
>     RH     - Relative Humidity in Percent                <
>     WIND   - Direction (from) and Speed in MPH           <
>     PRES   - Mean Sea Level Pressure (inches of Hg)      <
>     WCI    - Wind Chill Index                            <
>     VSB    - VISIBILITY IN MILES                         <
>     HX     - HEAT INDEX                                  <
>     TC     - TEMPERATURE IN CELSIUS                      <
>     VRB    - VARIABLE WIND DIRECTION                     <
>                                                          <
>>>>>>>>>>>>>>>>>>>>>>>>>>>> KEY <<<<<<<<<<<<<<<<<<<<<<<<<<<




USA.gov is the U.S. government's official web portal to all federal, state and local government web resources and services.